Temperature
12 12 12 12 12 12 11 11 11 11 11 11 10 10 11 11 11 12 12 12 12 13 13 14 14 14 14 14 14 14 14 13 13 14 14 14 14 14 14 14 15 15 15
12 12 11 11 11 11 11 11 11 11 11 10 10 10 10 10 10 11 11 11 12 12 12 13 13 13 14 14 14 14 14 13 13 13 13 13 13 13 13 13 13 13 14
11 11 11 11 11 11 11 11 11 11 10 10 10 10 10 10 10 10 10 10 11 11 11 11 12 13 13 13 14 14 14 13 13 13 13 13 12 12 12 12 12 12 12
9 9 10 10 10 10 10 10 10 10 10 10 10 10 10 9 9 9 9 9 10 10 10 11 11 12 12 13 13 13 13 13 13 13 13 13 12 12 12 12 12 12 12
7 8 8 8 9 9 9 10 10 10 10 10 10 10 9 9 9 9 9 9 9 9 10 10 10 11 12 12 13 13 13 13 13 13 13 12 12 12 12 12 12 11 11
6 6 6 7 7 7 8 8 9 9 9 10 10 9 9 9 9 9 9 9 9 9 9 9 10 10 11 11 12 12 13 13 13 13 13 12 12 12 12 12 12 11 11
5 5 5 5 5 6 6 7 7 8 8 9 9 9 9 9 9 9 9 9 9 9 9 9 9 10 11 11 12 12 13 13 13 13 13 13 12 12 12 12 11 11 12
4 4 4 4 4 4 5 5 6 6 7 8 8 8 8 8 8 8 8 8 9 9 9 9 9 9 10 11 11 12 12 13 13 13 13 13 13 12 12 12 12 11 11
4 4 4 4 4 4 4 4 5 5 6 7 7 7 8 8 8 8 8 8 8 9 9 9 9 9 10 10 11 11 12 12 12 12 13 12 12 12 12 12 11 11 9
4 4 4 4 4 4 4 4 4 4 5 6 6 6 7 7 8 8 8 8 8 8 9 9 9 9 9 10 10 11 11 12 12 12 12 12 12 12 12 12 12 11 10
4 4 4 4 4 4 4 4 4 4 4 5 5 6 6 7 7 7 7 7 8 8 8 9 9 9 9 9 10 10 11 11 12 12 12 12 12 11 11 11 11 12 11
4 4 4 4 4 4 3 3 3 4 4 4 5 5 6 6 7 7 7 7 7 8 8 8 8 8 9 9 10 10 10 11 11 11 11 11 11 11 11 11 11 11 12
5 4 4 4 4 4 3 3 3 3 4 4 4 5 5 6 6 7 7 7 7 7 8 8 8 8 8 9 9 10 10 10 11 11 11 11 11 11 10 10 10 10 10
5 4 4 4 4 4 4 4 4 4 4 4 4 5 5 6 6 6 6 7 7 7 8 8 8 8 8 8 9 9 10 10 10 11 11 10 10 10 10 10 10 10 10
5 5 4 4 4 4 4 4 4 4 4 4 4 5 5 5 6 6 6 7 7 7 8 8 8 8 8 8 8 9 9 10 10 10 10 10 10 10 10 10 10 10 10
5 5 4 4 4 4 4 4 4 4 4 4 4 5 5 5 6 6 6 7 7 7 7 8 8 7 7 8 8 9 9 10 10 10 10 10 10 10 10 10 10 10 10
5 5 5 4 4 4 4 4 4 4 4 4 5 5 5 5 6 6 7 7 7 7 7 7 7 7 7 7 8 8 9 10 10 10 10 10 10 10 10 10 10 10 11
6 5 5 5 5 4 4 4 4 4 4 4 5 5 5 6 6 6 7 7 7 7 7 7 7 7 7 7 7 8 9 9 10 10 10 10 10 10 10 10 10 11 11
6 6 6 5 5 5 5 5 5 5 5 5 5 5 6 6 6 6 7 7 7 7 7 7 7 7 7 7 7 8 9 9 10 10 10 10 11 11 11 11 11 11 11
6 6 6 6 6 5 5 5 5 5 5 5 5 5 6 6 6 6 6 7 7 7 6 6 7 7 7 7 7 8 9 9 10 10 10 10 10 10 11 10 10 10 10
6 6 6 6 6 6 6 6 5 5 5 5 5 5 6 6 6 6 6 6 6 6 6 6 6 7 7 7 8 8 9 9 10 10 10 10 10 10 10 10 10 10 10
7 7 7 7 7 6 6 6 6 6 6 6 6 6 6 6 6 6 6 6 6 6 6 6 6 7 7 7 8 8 9 9 10 10 10 10 10 9 9 9 9 10 10
7 7 7 7 7 7 7 7 6 6 6 6 6 6 6 6 6 6 6 6 6 6 6 7 7 7 7 8 8 9 9 10 10 10 10 10 10 9 9 9 9 9 9
7 7 7 7 7 7 7 7 7 6 6 6 6 6 6 6 6 6 6 7 7 7 7 7 7 8 8 9 9 9 10 10 10 10 10 10 10 10 10 10 10 10 10
8 7 7 7 7 7 7 7 7 7 6 6 6 6 6 6 6 7 7 7 7 8 8 8 8 9 9 9 10 10 10 10 10 10 10 10 10 10 10 10 10 10 10
8 8 7 7 7 7 7 7 7 7 7 6 6 6 6 7 7 7 7 8 8 9 9 9 9 10 10 10 10 10 10 10 10 10 10 10 10 10 10 10 10 10 10
Wind_Speed
11 11 11 11 11 9 9 10 10 8 8 8 8 7 6 6 5 3 3 4 6 6 7 9 10 9 7 7 7 6 7 7 7 4 2 1 0 1 3 5 7 8 9
13 12 13 12 11 11 12 12 11 11 10 10 8 8 8 7 6 5 5 4 4 6 7 7 9 8 10 8 7 8 7 8 7 7 3 2 2 3 5 6 6 8 9
14 14 14 14 13 13 13 13 12 12 12 11 10 10 10 9 7 7 6 6 5 6 6 7 8 8 9 8 9 8 7 7 7 6 4 3 2 4 5 6 8 7 9
14 14 15 16 15 15 14 13 13 12 12 12 12 11 10 10 9 8 7 7 6 6 6 6 7 7 9 9 9 10 8 8 7 6 6 4 3 4 6 6 6 5 6
14 15 15 16 16 15 14 13 13 12 14 13 11 11 10 9 9 9 9 8 7 7 6 6 7 8 10 9 8 9 9 8 8 7 7 6 5 7 7 5 8 8 6
14 15 15 15 16 15 15 14 13 12 12 12 12 11 11 9 12 14 10 8 7 7 7 7 6 8 10 12 13 13 12 10 11 9 8 8 9 8 7 10 10 8 5
14 15 15 15 15 15 16 15 13 12 11 11 12 11 11 12 14 14 14 9 9 8 8 7 7 6 8 8 10 12 13 14 13 11 11 11 11 11 12 13 11 7 6
15 15 15 15 16 15 15 15 14 11 10 10 11 11 10 11 14 14 14 10 9 9 9 9 8 8 7 8 7 8 9 11 13 12 11 11 10 12 13 12 13 10 10
16 16 16 16 16 16 16 14 12 11 10 9 8 10 10 10 12 13 11 6 7 9 9 9 8 9 10 10 9 9 9 8 9 13 13 12 14 17 16 14 15 15 12
16 17 16 16 16 16 15 14 11 10 11 10 10 9 10 10 11 12 10 5 7 7 7 7 9 10 10 10 10 10 10 9 8 7 9 11 15 19 21 18 18 17 15
17 17 16 15 15 15 13 11 10 9 9 8 9 8 9 10 10 12 12 7 7 7 6 6 6 9 11 12 12 10 11 9 9 9 8 10 12 13 14 12 13 17 17
16 16 16 15 14 12 10 9 8 7 7 7 7 7 7 7 9 10 12 12 10 8 7 6 6 7 9 10 10 10 12 11 8 8 9 10 11 12 12 11 10 8 7
16 16 15 14 12 11 9 9 7 5 5 5 6 6 6 5 6 11 12 12 12 9 7 8 7 6 6 7 10 13 13 10 9 10 10 10 9 12 13 12 12 11 11
15 14 13 12 11 9 7 6 5 4 4 5 6 6 5 5 5 5 5 6 8 8 6 6 5 4 5 5 6 10 10 10 10 10 10 9 10 12 13 13 13 12 11
14 13 12 11 10 9 8 6 6 5 5 5 5 5 5 5 7 8 6 5 6 6 6 4 3 2 3 4 5 8 8 9 9 9 11 12 13 12 12 11 11 11 9
12 11 9 9 9 7 7 7 5 5 5 6 6 5 5 6 5 6 8 7 7 9 7 5 5 5 5 4 6 7 8 9 10 11 12 12 13 13 11 11 11 11 11
12 11 8 8 8 7 6 6 5 4 5 4 1 3 4 4 3 3 5 6 8 10 5 5 5 5 5 5 6 7 7 9 10 11 12 12 12 12 13 12 12 11 11
11 11 9 7 6 6 6 5 4 3 2 3 5 5 2 2 3 6 8 8 5 5 4 4 5 5 5 6 6 7 8 10 10 11 11 11 11 12 12 12 12 12 11
10 8 7 6 5 5 5 4 3 3 2 2 2 4 6 6 7 6 6 3 5 5 4 4 4 4 4 6 6 8 9 10 11 11 11 11 11 11 11 11 10 13 11
8 11 9 5 5 5 5 4 3 3 2 2 2 2 1 2 3 2 1 1 2 3 3 3 3 4 5 6 7 8 9 10 11 10 10 10 9 10 11 11 10 11 9
7 8 10 6 4 4 4 3 3 2 2 2 2 2 2 2 2 2 1 0 1 2 2 3 4 5 5 6 7 8 10 9 9 10 10 10 10 9 9 9 10 9 9
5 5 5 5 4 4 3 3 2 2 2 2 1 2 2 2 2 1 0 0 1 1 2 3 4 5 6 6 7 8 9 9 9 10 10 10 10 10 10 9 9 9 9
5 5 5 4 4 4 4 3 2 2 1 1 1 2 1 1 1 1 1 1 1 1 2 3 4 5 5 6 7 8 9 10 10 11 11 10 10 10 10 10 11 11 10
6 5 4 4 3 3 3 3 3 2 1 1 1 2 2 2 2 1 1 1 1 1 2 2 3 5 8 7 7 7 8 10 11 11 14 12 11 9 9 9 10 11 10
7 5 4 3 3 2 2 2 2 2 2 2 2 2 2 2 2 1 2 2 3 3 3 3 3 5 9 11 9 8 11 13 12 11 11 11 11 10 10 10 9 10 9
8 7 5 3 2 2 1 1 2 2 2 2 3 3 3 3 2 2 2 3 4 4 4 3 3 5 9 9 11 12 13 13 13 13 10 10 10 9 10 8 10 9 9
Wind_Direction
277 271 267 264 257 250 247 248 247 246 245 249 254 258 264 268 266 268 276 273 253 243 234 227 228 220 214 208 201 200 205 208 236 253 244 250 147 100 69 68 71 76 90
277 275 271 267 262 253 249 247 243 241 241 240 244 250 257 259 254 252 260 262 261 258 249 242 241 230 222 214 204 204 204 203 217 242 245 223 185 150 116 94 81 80 85
290 287 283 279 271 261 253 247 241 238 239 236 233 239 247 251 250 248 247 248 242 249 252 246 246 239 233 221 212 209 203 199 207 223 233 212 175 149 127 105 96 88 85
299 295 290 286 281 274 266 254 244 237 235 234 231 232 239 245 247 247 244 242 239 238 241 245 246 242 241 232 221 215 201 193 200 216 225 217 189 160 145 136 119 98 92
303 299 294 291 288 284 276 266 256 245 238 231 228 228 231 236 243 241 237 237 235 236 236 238 243 247 245 237 227 218 199 195 198 208 217 209 193 175 162 146 135 118 91
300 298 296 295 293 290 285 276 264 251 242 231 223 223 226 230 234 233 231 233 235 238 243 245 246 253 253 241 230 219 201 196 201 204 211 209 198 182 158 151 145 140 125
297 297 296 295 293 292 292 287 275 261 246 234 227 220 222 228 232 238 240 235 237 239 242 246 253 248 251 249 234 221 211 205 200 200 209 209 194 179 163 160 161 148 134
299 298 297 295 294 292 289 286 278 266 251 240 232 221 219 229 230 234 241 237 237 241 241 240 244 252 251 240 228 220 218 216 214 215 221 213 193 176 168 157 143 117 110
303 301 299 296 292 290 287 282 278 268 256 242 234 224 219 229 232 235 236 228 236 244 244 240 241 250 249 232 221 218 216 221 222 218 214 201 176 161 153 143 141 138 136
307 304 301 298 293 289 285 279 276 266 256 246 236 226 220 228 235 238 234 221 233 242 246 243 238 245 252 230 217 213 214 212 199 195 191 177 168 161 159 159 155 151 146
308 306 303 299 295 291 285 280 274 264 250 239 233 228 224 228 238 241 234 215 223 233 238 240 240 243 249 237 220 216 210 192 189 183 171 164 160 161 163 161 159 158 157
310 308 306 303 300 301 293 288 281 265 249 238 233 235 233 232 233 241 237 224 215 221 230 233 239 250 253 243 224 210 188 177 177 171 164 160 157 157 157 152 141 133 135
314 313 312 311 308 304 298 292 284 264 241 230 227 232 238 236 236 236 239 235 223 218 226 219 227 254 261 248 224 195 179 178 173 168 162 155 148 146 143 136 126 114 110
317 318 318 319 317 312 306 296 282 262 248 233 222 226 233 237 237 232 226 227 220 212 212 210 220 246 246 232 203 190 187 180 171 163 151 141 137 141 145 146 144 138 130
320 321 323 323 322 320 313 302 287 264 248 236 221 215 217 231 234 217 206 208 200 192 177 187 205 222 230 210 194 186 180 170 158 150 147 146 145 146 147 149 148 150 149
325 326 326 326 325 325 325 326 313 290 283 257 240 225 225 234 249 225 216 208 189 170 167 190 205 212 215 202 189 181 174 165 156 150 150 150 151 152 151 153 157 160 159
323 323 323 327 329 329 332 334 337 357 37 48 18 236 236 250 249 198 175 168 168 165 180 199 206 209 208 198 187 175 164 156 149 147 147 149 150 153 157 160 165 167 167
323 322 327 323 325 326 328 329 329 340 7 30 35 39 52 98 124 134 141 140 152 177 202 208 208 202 199 185 172 158 148 145 143 141 141 143 147 152 157 163 168 169 164
321 320 320 323 326 327 331 336 343 0 29 36 44 48 63 85 98 125 145 154 167 185 203 208 198 185 170 156 146 144 144 143 141 139 140 142 145 149 154 160 161 157 156
318 325 334 332 335 339 345 352 1 20 34 34 44 53 56 74 99 118 130 151 179 195 192 185 170 158 147 140 137 134 134 137 138 138 141 143 145 148 150 152 154 158 162
315 323 335 339 341 340 346 354 358 10 23 41 45 55 67 83 104 123 132 165 187 173 157 149 143 143 137 132 132 134 134 138 141 142 143 145 147 147 147 149 153 154 151
311 316 326 330 334 340 341 347 356 5 28 59 71 81 86 83 100 120 127 52 70 123 137 139 135 139 140 138 141 142 142 142 145 145 145 146 147 147 146 147 150 151 150
315 317 327 336 341 348 359 5 8 12 23 45 104 113 125 108 104 110 94 43 79 117 128 131 133 135 142 147 155 157 155 157 157 153 149 148 149 150 151 153 155 157 161
323 317 317 330 345 358 6 11 17 20 29 66 99 115 116 103 94 81 50 41 54 77 107 125 139 148 151 154 159 162 160 154 152 153 151 152 153 154 156 159 164 170 172
335 326 322 322 332 345 2 15 26 30 33 54 83 101 109 100 91 82 53 43 45 59 72 94 127 148 156 157 157 153 144 142 144 149 151 152 155 158 160 163 166 166 165
348 345 337 325 318 322 341 11 38 45 47 54 69 90 103 104 95 79 56 40 30 34 44 71 122 135 143 151 147 141 141 144 146 146 150 151 154 160 163 165 167 169 168
Height
1469 1466 1463 1460 1457 1455 1453 1451 1450 1449 1448 1447 1446 1445 1444 1443 1443 1442 1443 1444 1446 1448 1451 1454 1456 1459 1460 1462 1463 1464 1465 1466 1466 1467 1468 1468 1469 1470 1471 1472 1473 1474 1476
1463 1459 1455 1451 1449 1446 1444 1443 1442 1441 1440 1440 1439 1439 1438 1437 1437 1436 1436 1437 1438 1439 1442 1446 1449 1451 1453 1456 1458 1459 1461 1462 1463 1463 1465 1466 1466 1468 1469 1471 1472 1473 1474
1455 1450 1446 1443 1440 1437 1434 1433 1433 1432 1432 1432 1431 1431 1431 1431 1431 1430 1430 1430 1430 1432 1434 1437 1440 1443 1446 1449 1451 1453 1456 1457 1458 1460 1461 1462 1464 1466 1468 1470 1471 1472 1473
1446 1441 1437 1433 1430 1426 1424 1423 1422 1422 1422 1422 1423 1423 1424 1424 1424 1425 1425 1424 1424 1426 1427 1429 1432 1435 1438 1441 1444 1447 1450 1451 1453 1455 1456 1458 1461 1463 1465 1467 1470 1471 1473
1438 1432 1427 1423 1419 1416 1413 1411 1410 1411 1411 1412 1413 1415 1416 1417 1418 1418 1419 1419 1419 1420 1421 1423 1425 1427 1430 1434 1437 1440 1443 1445 1447 1449 1451 1454 1456 1459 1461 1464 1467 1470 1473
1430 1424 1419 1414 1409 1405 1402 1400 1399 1399 1400 1402 1403 1406 1408 1409 1411 1412 1413 1414 1415 1415 1416 1417 1418 1421 1423 1426 1430 1433 1436 1439 1441 1443 1445 1448 1450 1454 1457 1460 1464 1467 1471
1422 1416 1411 1405 1400 1396 1392 1390 1389 1389 1390 1392 1394 1396 1399 1401 1404 1405 1407 1408 1409 1410 1411 1412 1413 1415 1417 1419 1422 1426 1429 1432 1435 1437 1439 1441 1445 1448 1452 1456 1460 1464 1467
1414 1409 1403 1398 1392 1387 1383 1380 1378 1379 1380 1382 1384 1387 1390 1393 1396 1398 1400 1401 1402 1404 1405 1406 1408 1409 1411 1413 1415 1418 1422 1425 1428 1431 1433 1436 1440 1444 1448 1452 1456 1461 1466
1408 1402 1396 1390 1384 1379 1375 1371 1369 1369 1369 1372 1375 1379 1382 1385 1389 1391 1393 1395 1396 1398 1400 1401 1402 1403 1405 1406 1408 1411 1415 1419 1422 1425 1427 1430 1434 1438 1442 1447 1451 1456 1461
1401 1395 1389 1383 1377 1371 1366 1363 1360 1359 1360 1362 1366 1370 1374 1377 1381 1384 1386 1388 1390 1392 1394 1395 1396 1397 1398 1400 1402 1404 1408 1412 1416 1419 1422 1424 1428 1432 1436 1441 1446 1451 1457
1395 1388 1382 1376 1370 1364 1359 1355 1353 1352 1352 1355 1358 1362 1366 1370 1373 1376 1379 1381 1383 1386 1388 1390 1391 1392 1392 1393 1395 1398 1402 1407 1410 1414 1416 1420 1423 1427 1432 1438 1443 1448 1453
1390 1383 1376 1370 1364 1358 1353 1350 1347 1346 1346 1348 1351 1355 1359 1363 1366 1369 1372 1375 1378 1380 1382 1384 1386 1387 1387 1388 1390 1393 1397 1401 1405 1409 1412 1415 1419 1424 1429 1436 1442 1449 1454
1385 1378 1371 1365 1359 1354 1349 1346 1343 1342 1342 1344 1346 1349 1353 1357 1360 1363 1366 1369 1371 1374 1376 1379 1380 1381 1382 1382 1384 1387 1392 1396 1400 1404 1408 1412 1417 1423 1429 1436 1443 1450 1456
1381 1375 1368 1362 1356 1351 1347 1344 1341 1340 1340 1341 1342 1345 1348 1351 1354 1357 1360 1363 1366 1369 1371 1374 1375 1376 1377 1377 1379 1382 1387 1391 1396 1401 1405 1410 1416 1422 1429 1436 1443 1450 1457
1379 1372 1366 1360 1355 1350 1346 1343 1340 1339 1339 1339 1340 1342 1345 1347 1350 1353 1355 1359 1362 1364 1367 1369 1371 1372 1372 1373 1375 1378 1383 1387 1392 1398 1403 1409 1416 1423 1430 1437 1443 1450 1456
1377 1371 1365 1360 1355 1351 1347 1343 1340 1338 1338 1338 1339 1341 1343 1345 1348 1350 1352 1355 1358 1360 1363 1365 1366 1367 1368 1369 1371 1374 1378 1383 1389 1396 1402 1408 1415 1422 1430 1437 1444 1450 1456
1376 1370 1365 1360 1355 1351 1347 1344 1341 1340 1338 1338 1339 1340 1342 1344 1346 1348 1350 1353 1355 1357 1359 1361 1362 1363 1364 1366 1367 1370 1375 1381 1388 1395 1402 1409 1416 1423 1430 1437 1443 1450 1456
1376 1371 1366 1361 1356 1353 1349 1346 1343 1342 1340 1340 1341 1342 1343 1344 1346 1347 1349 1351 1353 1355 1357 1358 1359 1360 1361 1362 1365 1368 1373 1380 1387 1395 1402 1409 1416 1423 1430 1436 1443 1449 1454
1375 1370 1366 1362 1358 1354 1351 1348 1346 1344 1343 1342 1342 1343 1344 1345 1346 1348 1349 1351 1352 1353 1355 1356 1357 1358 1358 1360 1362 1368 1374 1381 1389 1396 1404 1411 1418 1424 1430 1436 1442 1448 1453
1374 1370 1367 1363 1359 1356 1353 1350 1348 1346 1345 1345 1345 1345 1346 1347 1348 1349 1349 1350 1351 1352 1353 1354 1355 1356 1358 1360 1363 1369 1376 1384 1392 1399 1406 1413 1419 1425 1430 1436 1441 1447 1452
1373 1370 1367 1364 1361 1358 1355 1353 1351 1349 1348 1347 1347 1347 1347 1348 1349 1350 1350 1351 1351 1351 1353 1354 1355 1357 1359 1362 1366 1372 1379 1387 1395 1402 1408 1414 1419 1425 1430 1436 1441 1446 1451
1372 1370 1367 1365 1362 1360 1357 1356 1354 1352 1351 1350 1349 1349 1349 1350 1350 1351 1351 1352 1352 1353 1354 1355 1357 1359 1362 1366 1371 1377 1384 1390 1397 1404 1409 1415 1420 1425 1431 1436 1441 1446 1450
1371 1369 1367 1365 1363 1362 1360 1358 1356 1355 1353 1352 1351 1351 1351 1351 1352 1352 1353 1354 1354 1355 1356 1358 1360 1363 1366 1371 1377 1383 1388 1394 1400 1405 1410 1416 1421 1426 1431 1436 1441 1445 1450
1371 1369 1367 1365 1364 1363 1361 1360 1358 1357 1355 1353 1353 1353 1353 1354 1354 1355 1356 1357 1358 1359 1361 1362 1365 1368 1372 1376 1381 1387 1392 1397 1403 1408 1413 1418 1423 1428 1432 1437 1441 1445 1449
1372 1369 1367 1365 1364 1363 1362 1361 1360 1359 1357 1356 1355 1355 1356 1356 1357 1358 1360 1361 1362 1364 1365 1367 1370 1372 1376 1381 1385 1390 1395 1400 1405 1410 1415 1420 1424 1429 1433 1437 1441 1445 1449
1373 1370 1367 1365 1364 1363 1363 1362 1362 1361 1360 1359 1359 1359 1360 1361 1362 1363 1364 1366 1367 1368 1370 1372 1374 1377 1381 1385 1389 1394 1398 1403 1407 1412 1416 1421 1425 1429 1433 1437 1441 1445 1448